Location: *
(45.1333°S, 169.6333°W)
Time: 19:36:56
(UTC+00:00)

Cosmos 1980 Rocket - Pass Details

Date: 26 May 2022
Orbit: 827 x 851 km, 71.0° (Epoch: 01 July)

Event Time Altitude Azimuth Distance (km) Brightness Sun altitude
Rises 06:20:49 0° 212° (SSW) 3,409 5.7 -26.1°
Reaches altitude 10° 06:23:22 10° 217° (SW) 2,467 5.0 -26.6°
Maximum altitude 06:28:42 44° 287° (WNW) 1,140 3.2 -27.5°
Drops below altitude 10° 06:33:59 10° 358° (N) 2,437 4.6 -28.4°
Sets 06:36:29 0° 4° (N) 3,363 5.3 -28.9°
